Torna al catalogo

NOAA 16 DEB

AttivoSSO
NORAD 41080·DEBRIS·🇺🇸 United States

Lanciato Sep 21, 2000 da Vandenberg Space Force Base

Loading…

Prossimi Passaggi (prossime 24 ore)

TLE

AggiornatoSource: Space-Track

Epoca: Sep 13, 2026, 01:22 UTC

1 41080U 00055AP  26256.05706627  .00001576  00000-0  70609-3 0  9991
2 41080  98.5148 296.1394 0007980 336.8447  23.2372 14.23904220557398

Traccia NOAA 16 DEB in tempo reale con AllMySat

Download on the App Store